DELTA 1 DEB, 29010

Orbit data source: Space-Track

DELTA 1 DEB, 29010 is space debris in LEO originally from a launch on Sat, 06 Nov 1965 UTC launched from the Air Force Eastern Test Range (AFETR). Debris objects in space refer to the collection of defunct objects orbiting the Earth. Examples of debris include non-operational satellites, rocket bodies, and fragments generated from explosions, collisions, or faulty payload assembly.

Loading next visibility...
Identifier
29010, 1965-089H
Orbit
LEO
Country
Flag of USUS
Related business
Manufacturer
Unknown
Mission
Spacecraft
Bus & Motor
Unknown
Mass
Unknown
Launch date (UTC)
1965-11-06 (60 years ago)
Launch vehicle
Unknown
Launch site
Air Force Eastern Test Range (AFETR)
Object type
Payload
Rocket body
Debris
Shape & HBR
Unknown shape, 0.1 m
Radar Cross Section
Small (<0.1 m²)

Expand to show TLE details & history
Last TLE update: 10 months ago

TLE from 10 months ago
0 DELTA 1 DEB
1 29010U 65089H   25103.47924407 -.00001662  00000-0 -89937-2 0  9993
2 29010  59.2705 359.8486 0663758 249.9756 292.0496 12.09188555473024
Epoch: 2025-04-13T11:30Z
TLE epoch observation values (Epoch: 2025-04-13T11:30:06.687Z)
Latitude
4.43968°
Longitude
162.78039°
Altitude
1,472.477 km
Speed
7.202 km/s
True Right ascension
11h 48m 51s
True Declination
4° 24' 56"
Sunlit
Object was in full shadow at epoch
Visualization orbit readout
Latitude
Unknown
Longitude
Unknown
Altitude
Unknown
Speed
Unknown
Apparent Right ascension
Unknown
Apparent Declination
Unknown
Sunlit
N/A
Visualization observer readout
Local Sidereal Time
22:03:24
Azimuth
Unknown
Elevation
Unknown
Doppler factor
Unknown
Orbital elements
Apogee altitude
2,171.557 km
Perigee altitude
1,107.218 km
Semi-major axis
8,017.525 km
Eccentricity
0.06638
Inclination
59.2705°
RAAN
359.8486°
Arg. of periapsis
249.9756°
True anomaly
284.79299°
Mean anomaly
292.0496°
Eccentric anomaly
288.44185°
Mean motion
3.02331 °/min
Orbital period
119.07 mins
BSTAR
-0.0089937
Loading maneuver chart data...
Computing Atmospheric mass density...
Loading historical data...
Loading historical data...
Loading historical data...
Loading historical data...
Loading historical data...
Loading historical data...
Loading historical data...

Documentation

Showing up to 5 results
|